Regional Weather Roundup
Issued by NWS Northern Indiana

Home | Current Version | Previous Version | Graphics & Text | Print | Product List | Glossary On
Versions: 1 2 3 4 5 6 7 8 9 10 11 12 13 14 15 16 17 18 19 20 21 22 23 24 25 26 27 28 29 30 31 32 33 34 35 36 37 38 39 40 41 42 43 44 45 46 47 48 49 50
000
ASUS43 KIWX 231510
RWRIWX

KIWX WEATHER ROUNDUP
NATIONAL WEATHER SERVICE NORTHERN INDIANA
1000 AM EST MON JAN 23 2017

NOTE: "FAIR" INDICATES FEW OR NO CLOUDS BELOW 12,000 FEET WITH NO
SIGNIFICANT WEATHER AND/OR OBSTRUCTIONS TO VISIBILITY.

* THESE STATIONS ARE NOT UNDER NWS QUALITY CONTROL. THEY ALSO MAY NOT
  REPORT WEATHER SUCH AS PRECIPITATION OR FOG.

INZ001>027-231600-
NORTHERN INDIANA

CITY           SKY/WX    TMP DP  RH WIND       PRES   REMARKS
GARY*          CLOUDY    39  36  87 NW15G26   29.76R
VALPARAISO     CLOUDY    39  37  92 N9        29.74R FOG
LAPORTE*       CLOUDY    38  37  97 N12G17    29.73R FOG
KNOX*          CLOUDY    37  30  75 N13       29.71R
SOUTH BEND     CLOUDY    38  38 100 N12       29.71S FOG
ELKHART*       FOG       39  39 100 NW8       29.69  VSB 1
GOSHEN         FOG       42  39  89 N14       29.67S VSB 1
ROCHESTER*     CLOUDY    41  41 100 N12       29.68S FOG
WARSAW*        FOG       41  41 100 N9        29.67S VSB 3/4
FORT WAYNE     DRZL/FOG  44  42  93 N12       29.65R VSB 1
PERU/GRISSOM   CLOUDY    42  42 100 N13       29.65R FOG
MARION*        CLOUDY    43  43 100 N14       29.64S FOG

$$
INZ028>050-231600-
CENTRAL INDIANA

CITY           SKY/WX    TMP DP  RH WIND       PRES   REMARKS
LAFAYETTE      CLOUDY    39  38  96 NW14      29.71R
KOKOMO*        CLOUDY    42  42 100 N10       29.67R FOG
MUNCIE*        CLOUDY    45  44  97 N16       29.62R FOG
INDIANAPOLIS   CLOUDY    43  41  93 N16       29.64S FOG

$$
MIZ043>046-050>051-056>058-064>065-071>073-077>080-231600-
SOUTHWEST LOWER MICHIGAN

CITY           SKY/WX    TMP DP  RH WIND       PRES   REMARKS
BATTLE CREEK   CLOUDY    40  40 100 N8        29.69S FOG
BENTON HARBOR  CLOUDY    39  37  92 N9        29.73R FOG
COLDWATER*     CLOUDY    40  40 100 N6        29.68R FOG
HILLSDALE*     FOG       39  39 100 CALM      29.66R VSB 1
HOLLAND        CLOUDY    37  35  92 NW6       29.73R
GRAND RAPIDS   DRZL/FOG  41  39  93 N6        29.71R VSB 1
KALAMAZOO      FOG       41  39  93 N10       29.70R VSB 3/4
STURGIS*       CLOUDY    40  40 100 N9        29.67R FOG
THREE RIVERS*  FOG       40  40 100 N5        29.69S VSB 1

$$
OHZ001>008-015>018-024>025-231600-
NORTHWEST OHIO

CITY           SKY/WX    TMP DP  RH WIND       PRES   REMARKS
DEFIANCE       CLOUDY    42  41  96 NE12      29.66R FOG
FINDLAY        LGT RAIN  40  36  86 NE14      29.60R FOG
TOLEDO EXPRESS LGT RAIN  39  39 100 NE15      29.66R
TOLEDO METCALF LGT RAIN  37  37 100 NE9       29.67R FOG
LIMA           LGT RAIN  39  39 100 N13       29.60R

$$
AND FOR LAKE MICHIGAN COASTAL AND OPEN LAKE BUOY OBSERVATIONS

STATION/POSITION TEMP    WIND        PRES    VSBY  WAVE
                 AIR SEA DIR/SP/G                  HT/PER
                 (F)     (DEG/KT/KT) (MB)    (MI)  (FT/S)
CALUMET HARBOR    37     320/  6/ 13 1007.2R
MICHIGAN CITY     36     340/ 16/ 17   N/A
BURNS HARBOR      36     340/ 12/ 15 1007.8R
SAINT JOSEPH      37      10/ 10/ 13 1007.5

$$
&&



USA.gov is the U.S. government's official web portal to all federal, state and local government web resources and services.